Powrót do katalogu

DELTA 1 DEB

AktywnyPO
NORAD 26847·DEBRIS·🇺🇸 United States

Wystrzelony Jun 12, 1975 z Vandenberg Space Force Base

Loading…

Następne Przeloty (najbliższe 24 godziny)

TLE

ŚwieżeSource: Space-Track

Epoka: Sep 14, 2026, 11:33 UTC

1 26847U 75052LB  26257.48185718 -.00000017  00000-0  52197-4 0  9997
2 26847  99.6689 258.8934 0089866 328.0036 185.5353 13.27124488424745

Śledź DELTA 1 DEB w czasie rzeczywistym z AllMySat

Download on the App Store